{"data":{"norad_id":62502,"intl_designator":"2025-003R","name":"STARLINK-32788","alt_names":[],"object_type":"PAYLOAD","status":"ACTIVE","operator":null,"country":"US","launch_date":"2025-01-06","launch_site_code":"AFETR","launch_vehicle":null,"mission":null,"orbit_class":"UNKNOWN","rcs_meters":null,"size_class":null,"mass_kg":null,"dimensions":null,"purposes":["comms"],"wikipedia_slug":null,"has_3d_model":false,"image_url":null,"decayed_at":null,"tle_current":{"epoch":"2026-09-21T11:07:42.167136Z","epoch_age_seconds":91266,"freshness":"FRESH","line1":"1 62502U 25003R   26264.46368249  .00010315  00000+0  38374-3 0  9994","line2":"2 62502  43.0023 263.2596 0001639 281.0417  79.0250 15.27588749 96491","mean_motion":15.27588749,"eccentricity":0.0001639,"inclination_deg":43.0023,"raan_deg":263.2596,"arg_perigee_deg":281.0417,"mean_anomaly_deg":79.025,"bstar":0.00038374,"rev_number":9649,"period_min":94.266208817174,"perigee_km":481.89835440389,"apogee_km":484.14744261862,"semimajor_km":6861.1598985113,"source":"CELESTRAK","updated_at":"2026-09-22T09:00:49.619353Z"}}}